Temperature
17 17 17 17 17 17 16 16 16 17 17 17 17 16 16 16 16 16 16 16 16 16 16 16 16 16 16 16 16 15 15 15 15 15 15 15 15 14
17 17 17 17 16 16 16 16 16 16 16 17 16 16 16 16 16 15 15 15 16 16 16 16 16 16 16 15 15 15 15 15 15 15 15 14 14 14
17 16 16 17 16 16 16 16 16 16 16 16 16 16 15 15 15 15 15 15 15 15 15 15 15 15 15 15 15 15 15 15 14 14 14 14 14 14
16 16 16 16 16 16 15 15 15 15 15 15 15 15 15 15 15 15 15 15 15 15 15 15 15 15 15 15 14 14 14 14 14 14 14 14 14 14
16 16 16 16 15 15 15 15 15 15 15 15 15 15 14 14 14 14 14 14 14 14 14 14 14 14 14 14 14 14 14 14 14 13 13 13 13 13
17 16 16 16 16 15 15 15 15 15 15 15 14 14 14 14 14 14 14 14 14 14 14 14 14 14 14 14 14 14 13 13 13 13 13 13 13 13
16 16 16 16 16 15 15 15 14 14 14 14 14 14 14 13 13 13 13 13 13 13 13 13 13 13 13 13 13 13 13 13 13 13 13 13 13 12
16 16 16 16 16 15 15 15 14 14 14 14 14 13 13 13 13 13 13 13 13 13 13 13 13 12 12 12 12 13 12 12 12 12 12 12 12 12
16 15 15 15 15 15 15 15 14 14 14 13 13 13 13 13 13 13 13 12 12 12 12 12 12 12 12 12 12 12 12 12 12 12 12 12 12 12
15 15 15 15 14 14 14 14 14 13 13 13 13 13 13 13 13 12 12 12 12 12 12 12 12 11 11 11 11 12 12 11 11 11 11 11 11 11
15 15 14 14 14 14 14 13 13 13 13 13 13 13 13 13 12 12 12 12 12 12 11 11 11 11 11 11 11 11 11 11 11 11 11 11 10 10
15 15 14 14 14 14 13 13 13 12 12 13 13 12 12 12 12 12 12 12 12 12 11 11 11 11 11 11 10 10 10 10 10 10 10 10 10 10
14 14 14 14 14 13 13 13 12 12 12 12 12 12 12 11 11 11 11 11 11 11 10 10 10 10 10 10 10 10 10 10 10 9 9 9 9 9
13 13 13 13 13 13 13 13 12 12 12 11 11 11 11 11 11 11 11 11 11 10 10 10 10 10 10 10 10 10 10 9 9 9 9 9 9 9
13 13 13 13 13 12 12 12 12 11 11 11 11 11 11 10 10 10 10 10 10 10 10 10 9 9 10 10 10 10 9 9 9 9 9 8 8 8
13 12 12 12 12 11 11 11 11 11 10 10 10 10 10 10 10 10 10 10 10 10 9 9 9 9 9 9 9 9 9 9 9 8 8 8 8 8
12 12 11 11 11 11 11 10 10 10 10 10 10 10 10 10 9 9 9 10 10 10 9 9 9 9 9 9 9 9 9 9 8 8 8 8 8 8
11 11 11 11 11 10 10 10 10 10 10 9 9 9 9 9 9 9 9 9 9 9 9 9 9 9 9 9 9 8 8 8 8 8 8 8 8 8
11 10 10 10 10 10 10 10 10 9 9 9 9 9 9 9 9 9 9 9 9 9 9 9 8 8 9 9 8 8 8 8 8 8 8 8 8 8
10 10 10 10 10 10 10 10 9 9 9 9 9 8 8 8 8 8 8 8 8 8 8 8 8 8 8 8 8 8 8 8 8 8 8 7 7 7
10 10 10 10 9 9 9 9 9 9 8 8 8 8 8 8 8 8 8 8 8 8 8 8 7 7 7 7 8 8 8 7 7 7 7 7 7 7
10 9 9 9 9 9 8 8 8 8 8 8 8 8 8 8 8 8 8 8 7 8 7 7 7 7 7 7 8 8 8 7 7 7 7 7 7 7
9 9 9 9 8 8 8 8 8 8 7 7 7 7 7 7 7 7 7 7 7 7 7 7 7 7 7 7 7 7 7 7 7 7 7 7 6 6
Wind_Speed
5 4 5 4 4 5 6 6 7 7 7 4 4 4 3 5 3 5 6 4 6 6 7 7 8 9 9 9 10 10 10 10 11 11 12 13 14 14
3 4 4 4 4 4 5 6 6 7 6 5 4 4 4 5 3 6 6 4 5 5 5 6 7 8 8 8 8 8 8 9 9 10 11 11 12 12
3 3 4 4 4 4 4 5 5 5 7 6 4 4 4 5 4 5 5 5 3 5 4 4 5 5 6 6 6 6 7 7 8 8 8 9 10 10
3 3 4 3 4 4 4 5 5 5 6 7 5 4 4 4 4 4 4 3 3 3 4 4 3 4 4 4 4 4 4 5 5 5 6 6 7 7
3 3 3 3 4 4 4 5 5 5 5 6 5 4 3 3 3 3 3 2 3 2 5 5 5 4 4 3 3 2 2 2 2 3 4 4 5 5
3 3 3 3 3 4 4 4 5 5 5 5 4 3 3 3 3 3 3 2 2 2 0 2 5 7 6 5 4 2 2 1 1 1 2 2 3 4
2 2 2 1 3 4 4 4 4 5 4 4 4 4 3 3 3 3 3 3 1 1 2 2 3 3 4 5 4 2 1 1 1 1 1 2 2 3
3 2 2 1 1 1 2 4 5 5 5 4 3 3 4 3 3 4 3 3 2 1 2 2 1 1 1 2 4 3 2 1 1 1 2 2 3 3
2 2 3 1 1 2 2 3 2 1 3 5 4 4 4 4 4 4 3 3 3 2 3 2 1 1 1 3 6 5 3 2 2 1 1 2 2 3
2 2 2 1 1 2 3 2 1 1 1 2 3 4 4 4 4 4 3 3 2 0 2 2 2 2 2 2 7 6 5 4 3 3 2 2 3 3
3 1 1 1 3 4 3 3 2 1 1 0 2 3 3 3 4 3 2 2 2 1 1 3 2 2 2 2 4 7 6 6 5 5 4 3 3 5
3 3 2 1 1 3 3 3 3 3 2 1 1 2 2 1 2 2 3 3 2 1 0 2 2 2 2 1 1 3 4 5 6 6 6 5 4 4
3 3 2 4 2 2 4 2 3 4 3 2 2 1 1 1 1 1 2 3 3 2 1 2 3 3 3 2 2 2 2 2 3 4 7 7 6 5
3 2 2 4 3 2 1 1 3 5 2 2 1 1 1 1 1 2 2 2 3 3 1 2 3 3 3 3 2 2 2 2 3 3 3 6 7 7
2 3 4 5 4 3 2 2 3 2 1 1 1 1 2 2 2 1 1 1 2 1 1 2 3 3 4 4 3 2 2 2 2 3 3 3 3 3
4 5 6 5 3 2 3 3 2 1 2 2 2 1 1 1 1 2 2 2 2 1 1 2 4 4 4 4 3 3 3 2 2 3 3 3 3 4
5 4 3 3 3 3 2 2 2 1 1 1 1 1 1 1 1 2 2 3 3 2 2 2 3 4 4 4 4 4 3 3 2 2 3 4 3 4
6 5 4 4 3 3 3 2 2 1 1 1 1 1 1 2 2 2 2 3 3 3 3 2 3 3 4 3 2 4 4 4 3 3 4 4 4 4
5 4 4 4 4 3 3 2 2 2 1 1 1 1 1 2 2 2 3 3 3 4 3 3 2 4 5 5 2 3 5 5 4 4 4 5 5 4
5 4 4 4 4 3 3 3 2 2 2 2 2 2 2 2 2 2 2 3 4 4 4 3 3 3 5 6 5 4 5 5 4 5 5 5 4 2
4 4 4 4 4 3 3 2 2 2 2 2 2 2 2 3 3 3 3 3 4 5 5 4 3 4 6 6 6 5 3 5 5 5 5 5 5 4
4 4 4 3 3 3 2 2 2 2 2 3 2 3 3 3 4 4 4 4 4 5 5 5 4 4 5 6 6 6 5 3 6 9 8 7 5 5
3 3 3 3 2 2 2 2 2 2 2 2 2 3 3 4 4 4 4 4 4 5 6 5 5 4 5 6 7 6 6 6 5 4 5 8 10 9
Wind_Direction
267 262 264 271 269 270 268 265 270 279 282 267 264 261 257 262 260 260 259 226 220 231 234 239 243 241 235 233 235 236 239 242 241 241 241 241 243 241
269 283 277 275 275 274 276 273 265 270 279 289 280 281 282 278 255 269 261 227 218 224 232 238 243 243 235 232 230 231 234 237 239 240 238 239 239 237
265 269 274 285 284 281 279 278 276 274 274 286 289 291 283 279 283 282 272 257 226 191 212 227 234 234 229 227 226 228 233 237 239 239 238 237 235 229
263 272 278 279 277 286 288 286 286 282 277 282 286 283 280 278 284 283 281 266 257 157 167 186 200 198 196 200 210 222 231 235 239 242 240 234 230 224
259 267 278 286 285 287 286 288 286 282 280 279 283 292 287 291 289 277 274 276 264 173 162 167 168 166 162 164 175 184 199 220 234 244 242 232 224 216
249 258 269 280 284 285 279 283 289 288 284 279 285 288 293 299 290 290 282 266 266 263 218 182 168 164 153 152 150 154 162 172 194 228 223 217 209 206
238 255 274 358 357 323 310 306 300 291 289 290 294 297 307 315 305 292 290 280 255 290 275 235 192 181 161 154 144 135 153 159 146 150 172 168 176 185
230 245 234 201 186 247 328 330 329 304 301 297 291 295 303 305 308 296 296 294 289 320 292 288 277 241 165 126 113 121 138 148 129 117 130 145 154 164
227 243 262 254 238 261 218 216 239 304 311 302 301 304 307 313 307 302 304 303 309 331 298 287 308 289 250 120 134 145 150 158 161 156 155 172 175 173
218 238 257 270 326 309 274 257 262 289 299 283 302 308 321 320 301 280 276 270 269 291 295 279 270 273 256 165 157 167 179 188 191 192 196 206 212 207
201 198 236 224 41 329 276 267 267 272 171 345 338 320 325 322 311 292 284 269 286 274 320 297 286 275 258 222 168 176 188 197 199 201 203 209 230 227
183 170 105 65 54 310 265 263 264 272 283 260 238 239 249 233 250 285 296 289 299 292 13 294 297 289 268 239 204 192 199 195 201 204 201 199 210 225
202 196 154 134 166 270 272 268 289 285 258 259 256 254 250 275 284 297 304 296 298 295 341 284 289 285 278 270 257 228 218 218 215 213 202 198 207 233
208 199 138 138 170 217 264 351 288 273 258 258 272 289 305 316 329 320 313 307 306 302 313 281 276 275 275 273 275 253 241 231 228 233 227 202 211 219
171 107 126 159 178 174 165 233 247 252 260 266 284 301 317 328 308 272 252 250 247 252 267 271 278 282 277 279 286 273 268 267 248 248 236 228 233 235
172 148 159 175 195 144 163 192 225 280 290 286 291 294 297 295 306 318 307 295 278 252 209 250 266 276 275 279 275 269 269 269 260 259 257 247 236 232
183 177 181 176 183 185 184 181 192 202 259 292 298 305 307 316 326 323 311 297 284 287 284 273 267 265 274 287 282 281 278 276 263 249 256 251 238 236
187 184 188 193 199 201 200 190 190 214 250 260 272 289 300 307 312 314 309 308 306 299 301 302 297 280 262 245 258 289 285 283 280 250 252 259 254 242
194 192 192 193 198 201 202 203 204 201 234 249 260 270 283 297 317 320 318 315 308 306 306 307 296 292 290 289 244 243 288 287 279 267 262 267 267 258
198 196 193 194 194 201 208 211 209 196 209 230 247 272 281 287 301 303 305 322 312 305 300 298 301 300 295 297 297 280 242 273 286 280 278 273 268 252
199 205 203 198 197 201 207 209 209 216 231 242 246 274 282 279 288 297 298 301 291 300 303 306 318 274 278 282 280 279 265 223 253 274 279 277 276 265
203 205 204 205 203 205 206 214 220 223 228 245 258 270 281 286 286 286 293 299 296 300 303 304 302 284 285 288 291 294 292 270 235 235 253 266 283 283
209 208 199 198 197 201 207 222 236 243 249 263 272 273 277 282 286 289 293 295 301 305 302 300 301 294 293 293 295 298 300 296 283 260 243 224 234 246
Height
1539 1538 1537 1537 1536 1535 1534 1534 1534 1531 1530 1529 1529 1528 1527 1526 1525 1524 1524 1523 1523 1523 1522 1522 1522 1522 1523 1523 1523 1524 1524 1524 1524 1524 1524 1524 1525 1525
1535 1535 1534 1534 1533 1532 1531 1530 1530 1529 1527 1526 1525 1525 1523 1523 1522 1521 1520 1519 1519 1518 1518 1518 1517 1517 1517 1518 1518 1518 1518 1518 1518 1518 1519 1519 1519 1520
1533 1532 1532 1531 1530 1530 1529 1528 1527 1526 1524 1523 1522 1521 1519 1519 1518 1517 1517 1516 1515 1514 1514 1514 1513 1513 1512 1513 1513 1513 1513 1513 1513 1513 1513 1513 1514 1514
1531 1530 1529 1529 1528 1527 1526 1525 1524 1523 1522 1520 1519 1518 1517 1516 1515 1514 1513 1513 1512 1511 1510 1510 1509 1508 1508 1508 1508 1508 1508 1508 1508 1507 1508 1508 1508 1509
1528 1528 1527 1526 1525 1524 1523 1523 1522 1521 1519 1518 1517 1515 1514 1513 1512 1511 1511 1509 1509 1508 1507 1506 1505 1505 1504 1504 1504 1504 1504 1504 1503 1503 1503 1503 1503 1504
1526 1525 1525 1524 1523 1522 1521 1520 1519 1518 1516 1515 1514 1513 1512 1511 1510 1509 1508 1507 1506 1506 1505 1504 1503 1502 1501 1501 1501 1501 1500 1500 1500 1500 1499 1499 1499 1499
1523 1523 1522 1521 1520 1519 1519 1518 1517 1516 1515 1514 1512 1511 1510 1508 1508 1506 1506 1505 1504 1503 1503 1502 1501 1500 1499 1498 1498 1498 1497 1497 1497 1496 1496 1496 1496 1496
1520 1520 1519 1518 1517 1516 1515 1515 1514 1513 1512 1512 1511 1509 1508 1507 1505 1504 1504 1503 1502 1501 1500 1500 1499 1499 1498 1497 1496 1495 1495 1494 1494 1493 1493 1493 1492 1492
1518 1517 1517 1516 1514 1514 1512 1512 1511 1510 1510 1509 1508 1507 1506 1505 1503 1502 1501 1500 1499 1499 1498 1498 1497 1496 1495 1494 1493 1493 1492 1492 1491 1491 1490 1490 1490 1489
1515 1514 1514 1513 1512 1511 1511 1510 1509 1508 1507 1506 1506 1505 1504 1502 1501 1501 1499 1498 1497 1497 1496 1496 1495 1494 1493 1492 1491 1490 1490 1489 1488 1488 1488 1487 1487 1487
1511 1511 1511 1510 1509 1509 1508 1508 1507 1506 1505 1504 1503 1502 1501 1500 1499 1498 1497 1497 1496 1496 1495 1494 1493 1492 1491 1490 1489 1488 1487 1487 1486 1486 1485 1485 1484 1484
1508 1508 1507 1507 1507 1506 1506 1505 1504 1504 1503 1502 1501 1500 1499 1498 1497 1496 1495 1495 1495 1494 1493 1492 1491 1490 1490 1489 1487 1486 1485 1485 1484 1483 1482 1482 1482 1481
1505 1505 1504 1503 1503 1503 1503 1502 1501 1501 1501 1500 1499 1498 1497 1496 1495 1494 1493 1493 1493 1492 1491 1490 1489 1489 1488 1486 1485 1484 1483 1483 1482 1481 1480 1480 1479 1479
1502 1502 1501 1501 1500 1500 1500 1499 1499 1499 1499 1498 1498 1497 1496 1494 1493 1492 1491 1490 1490 1489 1488 1487 1487 1486 1486 1484 1483 1482 1481 1481 1480 1479 1478 1478 1477 1476
1499 1499 1499 1498 1498 1497 1497 1497 1497 1497 1497 1496 1495 1495 1494 1492 1491 1490 1489 1488 1487 1486 1486 1485 1485 1484 1484 1483 1481 1480 1479 1478 1477 1477 1476 1475 1474 1474
1495 1495 1496 1496 1496 1495 1495 1495 1495 1495 1495 1494 1493 1493 1492 1491 1490 1489 1489 1487 1486 1485 1484 1483 1482 1481 1481 1480 1479 1478 1476 1475 1474 1474 1473 1472 1472 1471
1491 1492 1493 1493 1493 1494 1493 1493 1493 1493 1492 1492 1492 1491 1490 1489 1488 1488 1486 1486 1485 1483 1482 1481 1480 1479 1478 1477 1476 1475 1474 1473 1472 1470 1470 1469 1468 1468
1489 1489 1490 1490 1491 1491 1491 1491 1491 1491 1490 1490 1490 1489 1488 1487 1487 1486 1485 1484 1482 1481 1480 1479 1478 1477 1476 1475 1474 1473 1472 1471 1469 1468 1467 1466 1466 1465
1486 1486 1486 1487 1488 1488 1489 1489 1489 1488 1488 1488 1487 1487 1486 1485 1484 1483 1482 1481 1480 1479 1477 1476 1475 1474 1474 1472 1471 1470 1469 1468 1467 1465 1464 1464 1463 1462
1482 1483 1483 1484 1484 1485 1486 1486 1486 1486 1485 1485 1485 1484 1484 1483 1482 1481 1480 1479 1478 1477 1476 1474 1473 1472 1471 1470 1468 1467 1466 1465 1464 1463 1462 1461 1460 1459
1479 1480 1481 1481 1482 1482 1482 1483 1483 1483 1483 1483 1482 1482 1481 1480 1480 1479 1478 1477 1476 1475 1474 1473 1471 1470 1468 1467 1466 1464 1463 1462 1461 1460 1459 1458 1457 1456
1476 1477 1477 1478 1479 1479 1479 1480 1480 1480 1480 1480 1480 1479 1479 1478 1477 1476 1476 1475 1474 1473 1472 1471 1469 1468 1467 1465 1464 1462 1460 1459 1457 1456 1455 1455 1455 1453
1472 1473 1474 1475 1475 1475 1476 1476 1477 1477 1477 1477 1476 1476 1476 1475 1475 1474 1473 1472 1471 1471 1469 1468 1466 1465 1464 1463 1461 1460 1458 1456 1455 1453 1452 1451 1451 1450